,,,PA_Meas_PMT16A,,PR_Meas_QMR101_102,,RH_Meas_QMH101,,SR_Meas_QMS101,,TA_Meas_QMH101,,GenWind,,GenWind,
date,time,status,PA,status,PR,status,RH,status,SR,status,TA,status,DirAvg,status,SpdAvg,
2008-11-24, 00:00:04,VALID,1002.61,VALID,0,VALID,92.3476,VALID,0,VALID,25.0469,VALID,351,VALID,0.366797,
2008-11-24, 00:01:04,VALID,1002.58,VALID,0,VALID,92.4086,VALID,0,VALID,25.0274,VALID,351,VALID,0.530859,
2008-11-24, 00:02:04,VALID,1002.59,VALID,0,VALID,92.401,VALID,0,VALID,25.0469,VALID,354,VALID,0.566016,
2008-11-24, 00:03:04,VALID,1002.56,VALID,0,VALID,92.4239,VALID,0,VALID,25.0469,VALID,353,VALID,0.413672,
2008-11-24, 00:04:04,VALID,1002.56,VALID,0,VALID,92.34,VALID,0,VALID,25.0469,VALID,353,VALID,0.505859,
2008-11-24, 00:05:04,VALID,1002.57,VALID,0,VALID,92.3705,VALID,0,VALID,25.0469,VALID,353,VALID,0.437109,
2008-11-24, 00:06:04,VALID,1002.58,VALID,0,VALID,92.3857,VALID,0,VALID,25.0274,VALID,353,VALID,0.454688,
2008-11-24, 00:07:04,VALID,1002.57,VALID,0,VALID,92.3781,VALID,0,VALID,25.0079,VALID,343,VALID,0.503516,
2008-11-24, 00:08:04,VALID,1002.52,VALID,0,VALID,92.3552,VALID,0,VALID,25.0079,VALID,359,VALID,0.710156,
2008-11-24, 00:09:04,VALID,1002.53,VALID,0,VALID,92.2942,VALID,0,VALID,25.0293,VALID,3,VALID,0.547266,
2008-11-24, 00:10:04,VALID,1002.53,VALID,0,VALID,92.2027,VALID,0,VALID,25.0079,VALID,2,VALID,0.414063,
2008-11-24, 00:11:04,VALID,1002.52,VALID,0,VALID,92.1874,VALID,0,VALID,25.0079,VALID,2,VALID,0.321484,
2008-11-24, 00:12:04,VALID,1002.52,VALID,0,VALID,92.1721,VALID,0,VALID,25.0274,VALID,2,VALID,0.480859,
2008-11-24, 00:13:04,VALID,1002.52,VALID,0,VALID,92.1416,VALID,0,VALID,25.0274,VALID,2,VALID,0.310937,
2008-11-24, 00:14:04,VALID,1002.51,VALID,0,VALID,92.1721,VALID,0,VALID,25.0274,VALID,2,VALID,0.291016,
2008-11-24, 00:15:04,VALID,1002.52,VALID,0,VALID,92.0806,VALID,0,VALID,25.0469,VALID,2,VALID,0.223047,
2008-11-24, 00:16:04,VALID,1002.53,VALID,0,VALID,91.9738,VALID,0,VALID,25.0663,VALID,2,VALID,0.249219,
2008-11-24, 00:17:04,VALID,1002.53,VALID,0,VALID,91.8899,VALID,0,VALID,25.1053,VALID,2,VALID,0,
2008-11-24, 00:18:04,VALID,1002.52,VALID,0,VALID,91.7678,VALID,0,VALID,25.1248,VALID,2,VALID,0.0515625,
2008-11-24, 00:19:04,VALID,1002.5,VALID,0,VALID,91.6915,VALID,0,VALID,25.1637,VALID,2,VALID,0.435547,
2008-11-24, 00:20:04,VALID,1002.52,VALID,0,VALID,91.5542,VALID,0,VALID,25.1637,VALID,1,VALID,0.556641,
2008-11-24, 00:21:04,VALID,1002.53,VALID,0,VALID,91.5237,VALID,0,VALID,25.1832,VALID,360,VALID,0.491797,
2008-11-24, 00:22:04,VALID,1002.46,VALID,0,VALID,91.4779,VALID,0,VALID,25.2046,VALID,360,VALID,0.467578,
2008-11-24, 00:23:04,VALID,1002.49,VALID,0,VALID,91.3711,VALID,0,VALID,25.1637,VALID,358,VALID,0.578125,
2008-11-24, 00:24:04,VALID,1002.46,VALID,0,VALID,91.3635,VALID,0,VALID,25.1851,VALID,354,VALID,0.749609,
2008-11-24, 00:25:04,VALID,1002.46,VALID,0,VALID,91.2643,VALID,0,VALID,25.1832,VALID,1,VALID,0.716016,
2008-11-24, 00:26:04,VALID,1002.48,VALID,0,VALID,91.2338,VALID,0,VALID,25.224,VALID,8,VALID,0.426172,
2008-11-24, 00:27:04,VALID,1002.46,VALID,0,VALID,91.0888,VALID,0,VALID,25.2027,VALID,338,VALID,0.402344,
2008-11-24, 00:28:04,VALID,1002.47,VALID,0,VALID,91.0354,VALID,0,VALID,25.263,VALID,313,VALID,0.281641,
2008-11-24, 00:29:04,VALID,1002.44,VALID,0,VALID,90.9515,VALID,0,VALID,25.2611,VALID,318,VALID,0.208203,
2008-11-24, 00:30:04,VALID,1002.43,VALID,0,VALID,90.8295,VALID,0,VALID,25.3019,VALID,358,VALID,0.376172,
2008-11-24, 00:31:04,VALID,1002.41,VALID,0,VALID,90.6921,VALID,0,VALID,25.3409,VALID,358,VALID,0.327344,
2008-11-24, 00:32:04,VALID,1002.4,VALID,0,VALID,90.6692,VALID,0,VALID,25.339,VALID,358,VALID,0.0179687,
2008-11-24, 00:33:04,VALID,1002.41,VALID,0,VALID,90.4633,VALID,0,VALID,25.3584,VALID,358,VALID,0.262891,
2008-11-24, 00:34:04,VALID,1002.38,VALID,0,VALID,90.3488,VALID,0,VALID,25.3584,VALID,358,VALID,0,
2008-11-24, 00:35:04,VALID,1002.4,VALID,0,VALID,90.4175,VALID,0,VALID,25.3779,VALID,358,VALID,0,
2008-11-24, 00:36:04,VALID,1002.37,VALID,0,VALID,90.3488,VALID,0,VALID,25.4169,VALID,358,VALID,0.128906,
2008-11-24, 00:37:04,VALID,1002.37,VALID,0,VALID,90.036,VALID,0,VALID,25.4169,VALID,355,VALID,0.396094,
2008-11-24, 00:38:04,VALID,1002.34,VALID,0,VALID,89.9521,VALID,0,VALID,25.4558,VALID,355,VALID,0.431641,
2008-11-24, 00:39:04,VALID,1002.38,VALID,0,VALID,89.6699,VALID,0,VALID,25.4753,VALID,346,VALID,0.488672,
2008-11-24, 00:40:04,VALID,1002.36,VALID,0,VALID,89.441,VALID,0,VALID,25.5357,VALID,347,VALID,0.756641,
2008-11-24, 00:41:04,VALID,1002.32,VALID,0,VALID,89.3189,VALID,0,VALID,25.5532,VALID,345,VALID,0.0488281,
2008-11-24, 00:42:04,VALID,1002.3,VALID,0,VALID,89.296,VALID,0,VALID,25.5941,VALID,345,VALID,0.157031,
2008-11-24, 00:43:04,VALID,1002.33,VALID,0,VALID,89.3571,VALID,0,VALID,25.5727,VALID,345,VALID,0.0730469,
2008-11-24, 00:44:04,VALID,1002.3,VALID,0,VALID,89.2808,VALID,0,VALID,25.5921,VALID,345,VALID,0.296094,
2008-11-24, 00:45:04,VALID,1002.28,VALID,0,VALID,89.2655,VALID,0,VALID,25.5921,VALID,256,VALID,0.350781,
2008-11-24, 00:46:04,VALID,1002.26,VALID,0,VALID,89.3952,VALID,0,VALID,25.5921,VALID,340,VALID,0.0410156,
2008-11-24, 00:47:04,VALID,1002.24,VALID,0,VALID,89.3113,VALID,0,VALID,25.5921,VALID,340,VALID,0,
2008-11-24, 00:48:04,VALID,1002.23,VALID,0,VALID,89.3418,VALID,0,VALID,25.5941,VALID,346,VALID,0.427344,
2008-11-24, 00:49:04,VALID,1002.24,VALID,0,VALID,89.3571,VALID,0,VALID,25.6136,VALID,341,VALID,0.275391,
2008-11-24, 00:50:04,VALID,1002.21,VALID,0,VALID,89.4563,VALID,0,VALID,25.6116,VALID,337,VALID,0.0527344,
2008-11-24, 00:51:04,VALID,1002.21,VALID,0,VALID,89.4486,VALID,0,VALID,25.5921,VALID,337,VALID,0.213281,
2008-11-24, 00:52:04,VALID,1002.2,VALID,0,VALID,89.4105,VALID,0,VALID,25.6116,VALID,338,VALID,0.254297,
2008-11-24, 00:53:04,VALID,1002.21,VALID,0,VALID,89.3952,VALID,0,VALID,25.6311,VALID,345,VALID,0.253906,
2008-11-24, 00:54:04,VALID,1002.17,VALID,0,VALID,89.4028,VALID,0,VALID,25.5921,VALID,2,VALID,0.462109,
2008-11-24, 00:55:04,VALID,1002.19,VALID,0,VALID,89.3113,VALID,0,VALID,25.5921,VALID,356,VALID,0.855078,
2008-11-24, 00:56:04,VALID,1002.19,VALID,0,VALID,89.3189,VALID,0,VALID,25.6116,VALID,356,VALID,0.757031,
2008-11-24, 00:57:04,VALID,1002.15,VALID,0,VALID,89.3876,VALID,0,VALID,25.6116,VALID,346,VALID,0.503906,
2008-11-24, 00:58:04,VALID,1002.16,VALID,0,VALID,89.3723,VALID,0,VALID,25.5921,VALID,345,VALID,0.340625,
2008-11-24, 00:59:04,VALID,1002.15,VALID,0,VALID,89.3037,VALID,0,VALID,25.6116,VALID,341,VALID,0.730078,
2008-11-24, 01:00:04,VALID,1002.11,VALID,0,VALID,89.3418,VALID,0,VALID,25.6116,VALID,355,VALID,0.521094,
2008-11-24, 01:01:04,VALID,1002.11,VALID,0,VALID,89.3723,VALID,0,VALID,25.633,VALID,353,VALID,0.25,
2008-11-24, 01:02:04,VALID,1002.08,VALID,0,VALID,89.4181,VALID,0,VALID,25.6525,VALID,353,VALID,0.473828,
2008-11-24, 01:03:04,VALID,1002.08,VALID,0,VALID,89.3647,VALID,0,VALID,25.633,VALID,352,VALID,0.403516,
2008-11-24, 01:04:04,VALID,1002.07,VALID,0,VALID,89.3647,VALID,0,VALID,25.6116,VALID,298,VALID,0.436719,
2008-11-24, 01:05:04,VALID,1002.09,VALID,0,VALID,89.3418,VALID,0,VALID,25.6116,VALID,316,VALID,0.274219,
2008-11-24, 01:06:04,VALID,1002.04,VALID,0,VALID,89.3189,VALID,0,VALID,25.6116,VALID,353,VALID,0.301953,
2008-11-24, 01:07:04,VALID,1002.03,VALID,0,VALID,89.2655,VALID,0,VALID,25.6525,VALID,345,VALID,0.3,
2008-11-24, 01:08:04,VALID,1002.02,VALID,0,VALID,89.0824,VALID,0,VALID,25.6311,VALID,342,VALID,0.430078,
2008-11-24, 01:09:04,VALID,1001.99,VALID,0,VALID,89.0443,VALID,0,VALID,25.6506,VALID,352,VALID,0.573438,
2008-11-24, 01:10:04,VALID,1001.97,VALID,0,VALID,88.9833,VALID,0,VALID,25.67,VALID,317,VALID,0.306641,
2008-11-24, 01:11:04,VALID,1001.94,VALID,0,VALID,88.9756,VALID,0,VALID,25.67,VALID,358,VALID,0.684375,
2008-11-24, 01:12:04,VALID,1001.93,VALID,0,VALID,88.9985,VALID,0,VALID,25.6506,VALID,327,VALID,0.555469,
2008-11-24, 01:13:04,VALID,1001.92,VALID,0,VALID,88.8993,VALID,0,VALID,25.6506,VALID,351,VALID,0.666797,
2008-11-24, 01:14:04,VALID,1001.9,VALID,0,VALID,88.8459,VALID,0,VALID,25.6506,VALID,354,VALID,0.653906,
2008-11-24, 01:15:04,VALID,1001.9,VALID,0,VALID,88.8993,VALID,0,VALID,25.6506,VALID,351,VALID,0.204688,
2008-11-24, 01:16:04,VALID,1001.91,VALID,0,VALID,88.9146,VALID,0,VALID,25.6506,VALID,355,VALID,0.696484,
2008-11-24, 01:17:04,VALID,1001.9,VALID,0,VALID,88.8078,VALID,0,VALID,25.67,VALID,7,VALID,0.644141,
2008-11-24, 01:18:04,VALID,1001.88,VALID,0,VALID,88.701,VALID,0,VALID,25.67,VALID,351,VALID,0.734375,
2008-11-24, 01:19:04,VALID,1001.88,VALID,0,VALID,88.6934,VALID,0,VALID,25.67,VALID,347,VALID,0.509375,
2008-11-24, 01:20:04,VALID,1001.89,VALID,0,VALID,88.8459,VALID,0,VALID,25.7109,VALID,290,VALID,0.0570313,
2008-11-24, 01:21:04,VALID,1001.85,VALID,0,VALID,88.64,VALID,0,VALID,25.67,VALID,331,VALID,0.647266,
2008-11-24, 01:22:04,VALID,1001.87,VALID,0,VALID,88.7086,VALID,0,VALID,25.6915,VALID,337,VALID,0.444141,
2008-11-24, 01:23:04,VALID,1001.85,VALID,0,VALID,88.8231,VALID,0,VALID,25.7109,VALID,337,VALID,0,
2008-11-24, 01:24:04,VALID,1001.8,VALID,0,VALID,88.9375,VALID,0,VALID,25.67,VALID,337,VALID,0.0289063,
2008-11-24, 01:25:04,VALID,1001.8,VALID,0,VALID,88.9451,VALID,0,VALID,25.6506,VALID,291,VALID,0.675391,
2008-11-24, 01:26:04,VALID,1001.79,VALID,0,VALID,88.7468,VALID,0,VALID,25.6311,VALID,284,VALID,0.601953,
2008-11-24, 01:27:04,VALID,1001.8,VALID,0,VALID,88.7162,VALID,0,VALID,25.6525,VALID,336,VALID,0.370313,
2008-11-24, 01:28:04,VALID,1001.78,VALID,0,VALID,88.7468,VALID,0,VALID,25.6506,VALID,337,VALID,0.389453,
2008-11-24, 01:29:04,VALID,1001.77,VALID,0,VALID,88.6323,VALID,0,VALID,25.672,VALID,348,VALID,0.786719,
2008-11-24, 01:30:04,VALID,1001.77,VALID,0,VALID,88.5789,VALID,0,VALID,25.67,VALID,352,VALID,0.725,
2008-11-24, 01:31:04,VALID,1001.77,VALID,0,VALID,88.3958,VALID,0,VALID,25.672,VALID,353,VALID,1.00742,
2008-11-24, 01:32:04,VALID,1001.75,VALID,0,VALID,88.3348,VALID,0,VALID,25.6895,VALID,324,VALID,0.460938,
2008-11-24, 01:33:04,VALID,1001.72,VALID,0,VALID,88.2738,VALID,0,VALID,25.6895,VALID,351,VALID,0.622656,
2008-11-24, 01:34:04,VALID,1001.71,VALID,0,VALID,88.1899,VALID,0,VALID,25.6895,VALID,8,VALID,0.691797,
2008-11-24, 01:35:04,VALID,1001.7,VALID,0,VALID,88.1593,VALID,0,VALID,25.709,VALID,305,VALID,0.743359,
2008-11-24, 01:36:04,VALID,1001.68,VALID,0,VALID,88.0983,VALID,0,VALID,25.7694,VALID,291,VALID,0.962109,
2008-11-24, 01:37:04,VALID,1001.67,VALID,0,VALID,87.8771,VALID,0,VALID,25.748,VALID,280,VALID,0.828125,
2008-11-24, 01:38:04,VALID,1001.64,VALID,0,VALID,87.9534,VALID,0,VALID,25.7889,VALID,289,VALID,0.218359,
2008-11-24, 01:39:04,VALID,1001.66,VALID,0,VALID,87.8084,VALID,0,VALID,25.7674,VALID,344,VALID,0.761328,
2008-11-24, 01:40:04,VALID,1001.63,VALID,0,VALID,87.6101,VALID,0,VALID,25.7869,VALID,356,VALID,0.644531,
2008-11-24, 01:41:04,VALID,1001.63,VALID,0,VALID,87.4041,VALID,0,VALID,25.8064,VALID,289,VALID,0.923828,
2008-11-24, 01:42:04,VALID,1001.6,VALID,0,VALID,87.5872,VALID,0,VALID,25.8278,VALID,290,VALID,0.372656,
2008-11-24, 01:43:04,VALID,1001.6,VALID,0,VALID,87.4956,VALID,0,VALID,25.8064,VALID,281,VALID,0.910547,
2008-11-24, 01:44:04,VALID,1001.56,VALID,0,VALID,87.5567,VALID,0,VALID,25.8083,VALID,277,VALID,0.392969,
2008-11-24, 01:45:04,VALID,1001.58,VALID,0,VALID,87.6406,VALID,0,VALID,25.8083,VALID,277,VALID,0,
2008-11-24, 01:46:04,VALID,1001.56,VALID,0,VALID,87.6635,VALID,0,VALID,25.7674,VALID,277,VALID,0.0140625,
2008-11-24, 01:47:04,VALID,1001.59,VALID,0,VALID,87.7703,VALID,0,VALID,25.7694,VALID,284,VALID,0.126563,
2008-11-24, 01:48:04,VALID,1001.58,VALID,0,VALID,87.7703,VALID,0,VALID,25.7285,VALID,276,VALID,0.853906,
2008-11-24, 01:49:04,VALID,1001.55,VALID,0,VALID,87.8237,VALID,0,VALID,25.7499,VALID,298,VALID,0.905469,
2008-11-24, 01:50:04,VALID,1001.54,VALID,0,VALID,87.9381,VALID,0,VALID,25.7304,VALID,311,VALID,0.273438,
2008-11-24, 01:51:04,VALID,1001.54,VALID,0,VALID,87.8847,VALID,0,VALID,25.7304,VALID,354,VALID,1.11797,
2008-11-24, 01:52:04,VALID,1001.5,VALID,0,VALID,87.9457,VALID,0,VALID,25.7109,VALID,341,VALID,0.696094,
2008-11-24, 01:53:04,VALID,1001.51,VALID,0,VALID,87.9991,VALID,0,VALID,25.6915,VALID,343,VALID,0.806641,
2008-11-24, 01:54:04,VALID,1001.5,VALID,0,VALID,88.1441,VALID,0,VALID,25.672,VALID,341,VALID,0.46875,
2008-11-24, 01:55:04,VALID,1001.52,VALID,0,VALID,88.3119,VALID,0,VALID,25.6116,VALID,349,VALID,0.107813,
2008-11-24, 01:56:04,VALID,1001.51,VALID,0,VALID,88.5026,VALID,0,VALID,25.5921,VALID,311,VALID,0.447656,
2008-11-24, 01:57:04,VALID,1001.48,VALID,0,VALID,88.6781,VALID,0,VALID,25.5532,VALID,349,VALID,0.326953,
2008-11-24, 01:58:04,VALID,1001.51,VALID,0,VALID,88.7468,VALID,0,VALID,25.5551,VALID,343,VALID,0.725781,
2008-11-24, 01:59:04,VALID,1001.5,VALID,0,VALID,88.8459,VALID,0,VALID,25.5357,VALID,345,VALID,0.247656,
2008-11-24, 02:00:04,VALID,1001.51,VALID,0,VALID,88.9451,VALID,0,VALID,25.5162,VALID,354,VALID,0.659766,
2008-11-24, 02:01:04,VALID,1001.49,VALID,0,VALID,89.029,VALID,0,VALID,25.4753,VALID,343,VALID,0.471094,
2008-11-24, 02:02:04,VALID,1001.47,VALID,0,VALID,89.0748,VALID,0,VALID,25.4363,VALID,344,VALID,0.524219,
2008-11-24, 02:03:04,VALID,1001.44,VALID,0,VALID,89.2426,VALID,0,VALID,25.4169,VALID,344,VALID,0.209766,
2008-11-24, 02:04:04,VALID,1001.42,VALID,0,VALID,89.4028,VALID,0,VALID,25.4188,VALID,344,VALID,0.0957031,
2008-11-24, 02:05:04,VALID,1001.4,VALID,0,VALID,89.4715,VALID,0,VALID,25.3779,VALID,344,VALID,0.0292969,
2008-11-24, 02:06:04,VALID,1001.38,VALID,0,VALID,89.5097,VALID,0,VALID,25.3798,VALID,344,VALID,0.488672,
2008-11-24, 02:07:04,VALID,1001.4,VALID,0,VALID,89.5325,VALID,0,VALID,25.3409,VALID,344,VALID,0.459766,
2008-11-24, 02:08:04,VALID,1001.36,VALID,0,VALID,89.6393,VALID,0,VALID,25.3019,VALID,344,VALID,0,
2008-11-24, 02:09:04,VALID,1001.39,VALID,0,VALID,89.7004,VALID,0,VALID,25.2611,VALID,275,VALID,0.174609,
2008-11-24, 02:10:04,VALID,1001.39,VALID,0,VALID,89.7309,VALID,0,VALID,25.2416,VALID,275,VALID,0,
2008-11-24, 02:11:04,VALID,1001.43,VALID,0,VALID,89.8224,VALID,0,VALID,25.2435,VALID,332,VALID,0.626172,
2008-11-24, 02:12:04,VALID,1001.4,VALID,0,VALID,89.6851,VALID,0,VALID,25.2221,VALID,311,VALID,0.356641,
2008-11-24, 02:13:04,VALID,1001.41,VALID,0,VALID,89.6851,VALID,0,VALID,25.2435,VALID,353,VALID,0.0289063,
2008-11-24, 02:14:04,VALID,1001.4,VALID,0,VALID,89.6393,VALID,0,VALID,25.263,VALID,310,VALID,0.4,
2008-11-24, 02:15:04,VALID,1001.42,VALID,0,VALID,89.5783,VALID,0,VALID,25.2611,VALID,306,VALID,0.0574219,
2008-11-24, 02:16:04,VALID,1001.4,VALID,0,VALID,89.5631,VALID,0,VALID,25.2825,VALID,280,VALID,0.767187,
2008-11-24, 02:17:04,VALID,1001.41,VALID,0,VALID,89.5097,VALID,0,VALID,25.3,VALID,292,VALID,0.266406,
2008-11-24, 02:18:04,VALID,1001.39,VALID,0,VALID,89.3952,VALID,0,VALID,25.3214,VALID,335,VALID,0.0738281,
2008-11-24, 02:19:04,VALID,1001.39,VALID,0,VALID,89.2426,VALID,0,VALID,25.3195,VALID,351,VALID,0.538672,
2008-11-24, 02:20:04,VALID,1001.36,VALID,0,VALID,89.2274,VALID,0,VALID,25.339,VALID,340,VALID,0.103516,
2008-11-24, 02:21:04,VALID,1001.36,VALID,0,VALID,89.1892,VALID,0,VALID,25.3409,VALID,340,VALID,0.112891,
2008-11-24, 02:22:04,VALID,1001.37,VALID,0,VALID,89.235,VALID,0,VALID,25.3195,VALID,348,VALID,0.533594,
2008-11-24, 02:23:04,VALID,1001.37,VALID,0,VALID,89.1358,VALID,0,VALID,25.3195,VALID,355,VALID,0.744922,
2008-11-24, 02:24:04,VALID,1001.39,VALID,0,VALID,89.0138,VALID,0,VALID,25.3195,VALID,325,VALID,0.723437,
2008-11-24, 02:25:04,VALID,1001.39,VALID,0,VALID,88.8917,VALID,0,VALID,25.3604,VALID,341,VALID,0.917578,
2008-11-24, 02:26:04,VALID,1001.38,VALID,0,VALID,88.8536,VALID,0,VALID,25.3779,VALID,352,VALID,0.954297,
2008-11-24, 02:27:04,VALID,1001.39,VALID,0,VALID,88.8688,VALID,0,VALID,25.3604,VALID,357,VALID,0.291406,
2008-11-24, 02:28:04,VALID,1001.41,VALID,0,VALID,88.701,VALID,0,VALID,25.3798,VALID,339,VALID,0.833203,
2008-11-24, 02:29:04,VALID,1001.44,VALID,0,VALID,88.6934,VALID,0,VALID,25.339,VALID,356,VALID,0.447656,
2008-11-24, 02:30:04,VALID,1001.42,VALID,0,VALID,88.6705,VALID,0,VALID,25.3195,VALID,349,VALID,0.535547,
2008-11-24, 02:31:04,VALID,1001.43,VALID,0,VALID,88.6247,VALID,0,VALID,25.3409,VALID,320,VALID,0.425391,
2008-11-24, 02:32:04,VALID,1001.45,VALID,0,VALID,88.6476,VALID,0,VALID,25.3,VALID,322,VALID,0.246875,
2008-11-24, 02:33:04,VALID,1001.47,VALID,0,VALID,88.8002,VALID,0,VALID,25.3,VALID,295,VALID,0.817969,
2008-11-24, 02:34:04,VALID,1001.49,VALID,0,VALID,88.7925,VALID,0,VALID,25.2786,VALID,302,VALID,0.0902344,
2008-11-24, 02:35:04,VALID,1001.51,VALID,0,VALID,88.907,VALID,0,VALID,25.3,VALID,340,VALID,0.312109,
2008-11-24, 02:36:04,VALID,1001.48,VALID,0,VALID,88.8383,VALID,0,VALID,25.3,VALID,356,VALID,0.708203,
2008-11-24, 02:37:04,VALID,1001.5,VALID,0,VALID,88.6094,VALID,0,VALID,25.3779,VALID,346,VALID,0.524219,
2008-11-24, 02:38:04,VALID,1001.5,VALID,0,VALID,88.5408,VALID,0,VALID,25.3779,VALID,346,VALID,0.195313,
2008-11-24, 02:39:04,VALID,1001.48,VALID,0,VALID,88.5332,VALID,0,VALID,25.3993,VALID,357,VALID,0.699219,
2008-11-24, 02:40:04,VALID,1001.49,VALID,0,VALID,88.6018,VALID,0,VALID,25.3798,VALID,332,VALID,0.243359,
2008-11-24, 02:41:04,VALID,1001.5,VALID,0,VALID,88.6628,VALID,0,VALID,25.339,VALID,332,VALID,0.358203,
2008-11-24, 02:42:04,VALID,1001.48,VALID,0,VALID,88.6934,VALID,0,VALID,25.3195,VALID,332,VALID,0.313281,
2008-11-24, 02:43:04,VALID,1001.5,VALID,0,VALID,88.7849,VALID,0,VALID,25.3019,VALID,334,VALID,0.490234,
2008-11-24, 02:44:04,VALID,1001.5,VALID,0,VALID,88.9222,VALID,0,VALID,25.2825,VALID,336,VALID,0.364062,
2008-11-24, 02:45:04,VALID,1001.5,VALID,0,VALID,89.1664,VALID,0,VALID,25.224,VALID,344,VALID,0.445313,
2008-11-24, 02:46:04,VALID,1001.5,VALID,0,VALID,89.296,VALID,0,VALID,25.1832,VALID,350,VALID,0.451172,
2008-11-24, 02:47:04,VALID,1001.51,VALID,0,VALID,89.4639,VALID,0,VALID,25.1656,VALID,350,VALID,0.220313,
2008-11-24, 02:48:04,VALID,1001.48,VALID,0,VALID,89.6546,VALID,0,VALID,25.1248,VALID,350,VALID,0.00351562,
2008-11-24, 02:49:04,VALID,1001.47,VALID,0,VALID,89.7996,VALID,0,VALID,25.1267,VALID,354,VALID,0.733203,
2008-11-24, 02:50:04,VALID,1001.48,VALID,0,VALID,89.8224,VALID,0,VALID,25.0858,VALID,348,VALID,0.666016,
2008-11-24, 02:51:04,VALID,1001.47,VALID,0,VALID,89.9064,VALID,0,VALID,25.1053,VALID,353,VALID,0.535547,
2008-11-24, 02:52:04,VALID,1001.47,VALID,0,VALID,89.9674,VALID,0,VALID,25.1053,VALID,333,VALID,0.183203,
2008-11-24, 02:53:04,VALID,1001.46,VALID,0,VALID,90.0437,VALID,0,VALID,25.0858,VALID,285,VALID,0.167578,
2008-11-24, 02:54:04,VALID,1001.45,VALID,0,VALID,90.1352,VALID,0,VALID,25.0858,VALID,345,VALID,0.770703,
2008-11-24, 02:55:04,VALID,1001.42,VALID,0,VALID,90.1276,VALID,0,VALID,25.1053,VALID,321,VALID,0.199609,
2008-11-24, 02:56:04,VALID,1001.39,VALID,0,VALID,90.1123,VALID,0,VALID,25.1461,VALID,315,VALID,0.247266,
2008-11-24, 02:57:04,VALID,1001.4,VALID,0,VALID,90.2268,VALID,0,VALID,25.1053,VALID,315,VALID,0.196484,
2008-11-24, 02:58:04,VALID,1001.36,VALID,0,VALID,90.3107,VALID,0,VALID,25.1248,VALID,344,VALID,0.789063,
2008-11-24, 02:59:04,VALID,1001.39,VALID,0,VALID,90.1734,VALID,0,VALID,25.1656,VALID,354,VALID,0.587891,
2008-11-24, 03:00:04,VALID,1001.37,VALID,0,VALID,90.0284,VALID,0,VALID,25.1851,VALID,352,VALID,0.276953,
2008-11-24, 03:01:04,VALID,1001.36,VALID,0,VALID,89.9521,VALID,0,VALID,25.1832,VALID,304,VALID,0.415234,
2008-11-24, 03:02:04,VALID,1001.35,VALID,0,VALID,89.8758,VALID,0,VALID,25.1637,VALID,303,VALID,0.409766,
2008-11-24, 03:03:04,VALID,1001.37,VALID,0,VALID,89.8987,VALID,0,VALID,25.1637,VALID,303,VALID,0.0898438,
2008-11-24, 03:04:04,VALID,1001.38,VALID,0,VALID,89.9598,VALID,0,VALID,25.1637,VALID,285,VALID,0.664453,
2008-11-24, 03:05:04,VALID,1001.38,VALID,0,VALID,89.9826,VALID,0,VALID,25.1442,VALID,284,VALID,0.0605469,
2008-11-24, 03:06:04,VALID,1001.37,VALID,0,VALID,90.0742,VALID,0,VALID,25.1053,VALID,314,VALID,0.223047,
2008-11-24, 03:07:04,VALID,1001.37,VALID,0,VALID,90.12,VALID,0,VALID,25.0858,VALID,349,VALID,0.559375,
2008-11-24, 03:08:04,VALID,1001.42,VALID,0,VALID,90.2878,VALID,0,VALID,25.0469,VALID,348,VALID,0.323828,
2008-11-24, 03:09:04,VALID,1001.42,VALID,0,VALID,90.5319,VALID,0,VALID,25.0469,VALID,298,VALID,0.933984,
2008-11-24, 03:10:04,VALID,1001.42,VALID,0,VALID,90.5548,VALID,0,VALID,25.0682,VALID,284,VALID,1.06328,
2008-11-24, 03:11:04,VALID,1001.43,VALID,0,VALID,90.4709,VALID,0,VALID,25.0877,VALID,309,VALID,0.391797,
2008-11-24, 03:12:04,VALID,1001.45,VALID,0,VALID,90.4022,VALID,0,VALID,25.0858,VALID,349,VALID,0.762109,
2008-11-24, 03:13:04,VALID,1001.45,VALID,0,VALID,90.387,VALID,0,VALID,25.1072,VALID,356,VALID,0.520703,
2008-11-24, 03:14:04,VALID,1001.44,VALID,0,VALID,90.3336,VALID,0,VALID,25.1053,VALID,351,VALID,0.0949219,
2008-11-24, 03:15:04,VALID,1001.48,VALID,0,VALID,90.3565,VALID,0,VALID,25.1053,VALID,318,VALID,0.636719,
2008-11-24, 03:16:04,VALID,1001.49,VALID,0,VALID,90.3488,VALID,0,VALID,25.1053,VALID,357,VALID,0.334766,
2008-11-24, 03:17:04,VALID,1001.49,VALID,0,VALID,90.387,VALID,0,VALID,25.1442,VALID,358,VALID,0.333984,
2008-11-24, 03:18:04,VALID,1001.5,VALID,0,VALID,90.3336,VALID,0,VALID,25.1442,VALID,345,VALID,0.21875,
2008-11-24, 03:19:04,VALID,1001.51,VALID,0,VALID,90.3412,VALID,0,VALID,25.1832,VALID,352,VALID,0.778516,
2008-11-24, 03:20:04,VALID,1001.53,VALID,0,VALID,90.2725,VALID,0,VALID,25.224,VALID,354,VALID,1.06836,
2008-11-24, 03:21:04,VALID,1001.54,VALID,0,VALID,90.0589,VALID,0,VALID,25.2416,VALID,344,VALID,0.801953,
2008-11-24, 03:22:04,VALID,1001.58,VALID,0,VALID,89.8835,VALID,0,VALID,25.2611,VALID,345,VALID,0.634375,
2008-11-24, 03:23:04,VALID,1001.59,VALID,0,VALID,89.7538,VALID,0,VALID,25.3,VALID,333,VALID,0.210547,
2008-11-24, 03:24:04,VALID,1001.59,VALID,0,VALID,89.6775,VALID,0,VALID,25.3,VALID,355,VALID,0.645703,
2008-11-24, 03:25:04,VALID,1001.59,VALID,0,VALID,89.6012,VALID,0,VALID,25.2786,VALID,357,VALID,0.463672,
2008-11-24, 03:26:04,VALID,1001.6,VALID,0,VALID,89.6241,VALID,0,VALID,25.3214,VALID,331,VALID,0.832031,
2008-11-24, 03:27:04,VALID,1001.59,VALID,0,VALID,89.5173,VALID,0,VALID,25.3195,VALID,350,VALID,0.517578,
2008-11-24, 03:28:04,VALID,1001.63,VALID,0,VALID,89.4715,VALID,0,VALID,25.3409,VALID,343,VALID,0.357422,
2008-11-24, 03:29:04,VALID,1001.61,VALID,0,VALID,89.5478,VALID,0,VALID,25.3409,VALID,325,VALID,0,
2008-11-24, 03:30:04,VALID,1001.63,VALID,0,VALID,89.5936,VALID,0,VALID,25.3,VALID,327,VALID,0.190234,
2008-11-24, 03:31:04,VALID,1001.63,VALID,0,VALID,89.6622,VALID,0,VALID,25.3019,VALID,296,VALID,0.93125,
2008-11-24, 03:32:04,VALID,1001.65,VALID,0,VALID,89.6775,VALID,0,VALID,25.3019,VALID,289,VALID,0.859375,
2008-11-24, 03:33:04,VALID,1001.63,VALID,0,VALID,89.6622,VALID,0,VALID,25.2806,VALID,277,VALID,0.672656,
2008-11-24, 03:34:04,VALID,1001.6,VALID,0,VALID,89.6546,VALID,0,VALID,25.2806,VALID,285,VALID,0.158594,
2008-11-24, 03:35:04,VALID,1001.59,VALID,0,VALID,89.6546,VALID,0,VALID,25.3,VALID,287,VALID,0.228516,
2008-11-24, 03:36:04,VALID,1001.57,VALID,0,VALID,89.6775,VALID,0,VALID,25.2806,VALID,310,VALID,0.145313,
2008-11-24, 03:37:04,VALID,1001.56,VALID,0,VALID,89.7461,VALID,0,VALID,25.2806,VALID,329,VALID,0.419531,
2008-11-24, 03:38:04,VALID,1001.59,VALID,0,VALID,89.7919,VALID,0,VALID,25.3,VALID,357,VALID,0.483203,
2008-11-24, 03:39:04,VALID,1001.58,VALID,0,VALID,89.7156,VALID,0,VALID,25.3214,VALID,328,VALID,0.207422,
2008-11-24, 03:40:04,VALID,1001.62,VALID,0,VALID,89.708,VALID,0,VALID,25.3195,VALID,328,VALID,0.0195313,
2008-11-24, 03:41:04,VALID,1001.62,VALID,0,VALID,89.7004,VALID,0,VALID,25.3195,VALID,328,VALID,0.341406,
2008-11-24, 03:42:04,VALID,1001.65,VALID,0,VALID,89.7233,VALID,0,VALID,25.3,VALID,338,VALID,0.786328,
2008-11-24, 03:43:04,VALID,1001.67,VALID,0,VALID,89.6622,VALID,0,VALID,25.3195,VALID,355,VALID,0.704687,
2008-11-24, 03:44:04,VALID,1001.67,VALID,0,VALID,89.6088,VALID,0,VALID,25.3195,VALID,351,VALID,0.611719,
2008-11-24, 03:45:04,VALID,1001.69,VALID,0,VALID,89.6546,VALID,0,VALID,25.3,VALID,349,VALID,0.687891,